Flag for U.S.A. Weather past 2 weeks in Norfolk, Virginia, U.S.A.

Now
69 °F

Low clouds.


Feels Like: 69 °F
Forecast: 69 / 74 °F
Wind: 15 mph from Northeast

Location: Norfolk Naval Air Station

Current Time: Jun 3, 2015 at 7:36:51 AM

Latest Report: Jun 3, 2015 at 6:59 AM


Visibility: 9 mi

Pressure: 30.06 "Hg

Humidity: 79%

Dew point: 62 °F

Location of NorfolkLocation

Historic Weather in Norfolk — Graph

°F

Norfolk temperature yesterday

Maximum temperature yesterday: 88 °F (at 11:59 AM)
Minimum temperature yesterday: 69 °F (at 9:59 PM)
Average temperature yesterday: 76 °F

Past Weeks' High & Low Weather Summary

 TemperatureHumidityPressure
High95 °F (Jun 1, 4:59 PM)84% (Jun 3, 3:59 AM)30.47 "Hg (Jun 3, 3:59 AM)
Low58 °F (May 22, 4:59 AM)32% (May 25, 2:59 PM)29.80 "Hg (May 21, 3:59 PM)
Average77 °F58%30.15 "Hg
* Reported May 19 5:59 AM — Jun 3 5:59 AM, Norfolk, Weather by CustomWeather, © 2015

Note: Actual official high and low records may vary slightly from our data, if they occured in-between our weather recording intervals... More about our weather records

Advertising

Norfolk weather history for previous 24 hours

 ConditionsComfort  
Time TempWeatherWind HumidityBarometerVisibility
5:59 AM
Wed, Jun 3
69 °FDrizzle. Fog.14 mph81%30.06 "Hg5 mi
4:59 AM69 °FFog.18 mph81%30.04 "Hg6 mi
3:59 AM68 °FLow clouds.16 mph84%30.05 "Hg7 mi
2:59 AM69 °FLow clouds.13 mph81%30.05 "Hg10 mi
1:59 AM69 °FLow clouds.14 mph81%30.06 "Hg10 mi
12:59 AM69 °FFog.12 mph81%30.06 "Hg5 mi
11:59 PM
Tue, Jun 2
69 °FLow clouds.15 mph81%30.07 "Hg10 mi
10:59 PM69 °FLow clouds.15 mph79%30.05 "Hg10 mi
9:59 PM69 °FLight rain. Mostly cloudy.12 mph81%30.06 "Hg10 mi
8:59 PM70 °FLight rain. Mostly cloudy.14 mph81%30.05 "Hg8 mi
7:59 PM72 °FMostly cloudy.10 mph81%30.03 "Hg8 mi
6:59 PM74 °FMostly cloudy.10 mph79%30.01 "Hg9 mi
5:59 PM75 °FMostly cloudy.6 mph79%29.99 "Hg10 mi
4:59 PM73 °FLight rain. Cloudy.10 mph79%29.99 "Hg8 mi
3:59 PM74 °FThunderstorms. Cloudy.5 mph76%30.03 "Hg7 mi
2:59 PM73 °FThunderstorms. Cloudy.5 mph79%30.01 "Hg9 mi
1:59 PM72 °FThunderstorms. Mostly cloudy.5 mph76%30.03 "Hg2 mi
12:59 PM83 °FThunderstorms. Cloudy.16 mph61%29.99 "Hg10 mi
11:59 AM88 °FPartly sunny.6 mph52%30.00 "Hg10 mi
10:59 AM86 °FBroken clouds.7 mph55%30.02 "Hg10 mi
9:59 AM84 °FBroken clouds.5 mph59%30.02 "Hg10 mi
8:59 AM81 °FBroken clouds.9 mph67%30.01 "Hg10 mi
7:59 AM80 °FBroken clouds.7 mph69%30.00 "Hg10 mi
Weather by CustomWeather, © 2015

See weather overviewHow to use our weather pages